This is the latest recevied weather packets stored in our database for station/object JA6CFI-13. If no packets are shown the sender has not sent any weather packets the latest 10 day(s).
| Time | Temp. | Humidity | Pressure | Rain* | Wind** | Luminosity | Snow |
|---|---|---|---|---|---|---|---|
| 1777704121 | 25° C | 44% | 1011.9 hPa | 0 mm | - | - | - |
| 1777703660 | 25° C | 44% | 1011.8 hPa | 0 mm | - | - | - |
| 1777702879 | 25° C | 46% | 1011.9 hPa | 0 mm | - | - | - |
| 1777702322 | 24.44° C | 48% | 1011.9 hPa | 0 mm | - | - | - |
| 1777702100 | 24.44° C | 48% | 1011.9 hPa | 0 mm | - | - | - |
| 1777701321 | 25° C | 50% | 1011.9 hPa | 0 mm | - | - | - |
| 1777700540 | 25° C | 50% | 1012 hPa | 0 mm | - | - | - |
| 1777700523 | 25° C | 50% | 1012 hPa | 0 mm | - | - | - |
| 1777699760 | 24.44° C | 50% | 1012.2 hPa | 0 mm | - | - | - |
| 1777698980 | 25° C | 51% | 1012.3 hPa | 0 mm | - | - | - |
| 1777698722 | 25° C | 51% | 1012.3 hPa | 0 mm | - | - | - |
| 1777698199 | 25.56° C | 51% | 1012.4 hPa | 0 mm | - | - | - |
| 1777697420 | 25.56° C | 51% | 1012.3 hPa | 0 mm | - | - | - |
| 1777696923 | 25.56° C | 50% | 1012.1 hPa | 0 mm | - | - | - |
| 1777696640 | 25.56° C | 51% | 1012.1 hPa | 0 mm | - | - | - |
| 1777695861 | 25.56° C | 51% | 1012.2 hPa | 0 mm | - | - | - |
| 1777695122 | 25.56° C | 49% | 1012.4 hPa | 0 mm | - | - | - |
| 1777695080 | 25.56° C | 50% | 1012.4 hPa | 0 mm | - | - | - |
| 1777694299 | 26.11° C | 49% | 1012.4 hPa | 0 mm | - | - | - |
| 1777693521 | 26.11° C | 48% | 1012.4 hPa | 0 mm | - | - | - |
| 1777692740 | 26.11° C | 46% | 1012.5 hPa | 0 mm | - | - | - |
| 1777691959 | 25.56° C | 47% | 1012.5 hPa | 0 mm | - | - | - |
| 1777691181 | 25.56° C | 47% | 1012.6 hPa | 0 mm | - | - | - |
| 1777690400 | 25.56° C | 48% | 1012.7 hPa | 0 mm | - | - | - |
| 1777689619 | 24.44° C | 48% | 1012.8 hPa | 0 mm | - | - | - |
* Rain latest hour (hover to see other rain measurements)
** Current wind speed in m/s (hover to see current wind gust speed)